Hourly Weather Rudnya-Zamyslovyts'ka

Today, 21 April, Wednesday

Time Temperature Precipitation Wind Pressure Humidity
00:00 +5°C° 0 mm 1 mps 741 mmHg 91%
01:00 +5°C° 0 mm 1 mps 741 mmHg 90%
02:00 +4°C° 0 mm 2 mps 741 mmHg 91%
03:00 +5°C° 0 mm 1 mps 741 mmHg 91%
04:00 +6°C° 0 mm 1 mps 741 mmHg 91%
05:00 +6°C° 0 mm 1 mps 741 mmHg 90%
06:00 +6°C° 0 mm 1 mps 741 mmHg 87%
07:00 +7°C° 0 mm 1 mps 741 mmHg 84%
08:00 +7°C° 0 mm 2 mps 742 mmHg 83%
09:00 +8°C° 0.1 mm 2 mps 742 mmHg 77%
10:00 +9°C° 0.1 mm 2 mps 741 mmHg 71%
11:00 +10°C° 0.1 mm 3 mps 741 mmHg 65%
12:00 +11°C° 0.1 mm 3 mps 741 mmHg 63%
13:00 +12°C° 0.1 mm 3 mps 741 mmHg 60%
14:00 +12°C° 0 mm 3 mps 741 mmHg 57%
15:00 +12°C° 0.3 mm 3 mps 741 mmHg 59%
16:00 +12°C° 0.3 mm 3 mps 741 mmHg 61%
17:00 +12°C° 0.3 mm 3 mps 741 mmHg 63%
18:00 +12°C° 0.1 mm 2 mps 741 mmHg 70%
19:00 +10°C° 0.1 mm 2 mps 741 mmHg 77%
20:00 +8°C° 0.1 mm 2 mps 742 mmHg 84%
21:00 +8°C° 0 mm 2 mps 742 mmHg 84%
22:00 +7°C° 0 mm 2 mps 742 mmHg 85%
23:00 +7°C° 0 mm 3 mps 742 mmHg 86%

Tomorrow, 22 April, Thursday

Time Temperature Precipitation Wind Pressure Humidity
00:00 +7°C° 0 mm 3 mps 742 mmHg 87%
01:00 +5°C° 0 mm 3 mps 742 mmHg 88%
02:00 +5°C° 0 mm 3 mps 742 mmHg 90%
03:00 +5°C° 0 mm 3 mps 742 mmHg 91%
04:00 +5°C° 0 mm 3 mps 742 mmHg 93%
05:00 +5°C° 0 mm 3 mps 742 mmHg 95%
06:00 +7°C° 0 mm 3 mps 743 mmHg 88%
07:00 +8°C° 0 mm 4 mps 743 mmHg 82%
08:00 +10°C° 0 mm 4 mps 743 mmHg 76%
09:00 +12°C° 0.2 mm 4 mps 743 mmHg 70%
10:00 +13°C° 0.2 mm 4 mps 743 mmHg 64%
11:00 +14°C° 0.2 mm 4 mps 743 mmHg 58%
12:00 +15°C° 0.5 mm 5 mps 743 mmHg 57%
13:00 +15°C° 0.5 mm 5 mps 743 mmHg 56%
14:00 +15°C° 0.5 mm 5 mps 742 mmHg 55%
15:00 +13°C° 1.7 mm 4 mps 742 mmHg 65%
16:00 +11°C° 1.7 mm 4 mps 743 mmHg 76%
17:00 +9°C° 1.7 mm 3 mps 743 mmHg 86%
18:00 +9°C° 0.4 mm 3 mps 743 mmHg 87%
19:00 +9°C° 0.4 mm 2 mps 743 mmHg 88%
20:00 +8°C° 0.4 mm 2 mps 743 mmHg 90%
21:00 +7°C° 1 mm 3 mps 744 mmHg 89%
22:00 +5°C° 1 mm 3 mps 744 mmHg 89%
23:00 +4°C° 1 mm 4 mps 744 mmHg 88%

Day after tomorrow, 23 April, Friday

Time Temperature Precipitation Wind Pressure Humidity
00:00 +4°C° 0.4 mm 4 mps 744 mmHg 88%
01:00 +4°C° 0.4 mm 3 mps 744 mmHg 88%
02:00 +4°C° 0.4 mm 2 mps 744 mmHg 88%
03:00 +4°C° 0 mm 2 mps 744 mmHg 88%
04:00 +4°C° 0 mm 2 mps 744 mmHg 87%
05:00 +2°C° 0 mm 3 mps 744 mmHg 87%
06:00 +3°C° 0 mm 3 mps 745 mmHg 82%
07:00 +3°C° 0 mm 3 mps 745 mmHg 77%
08:00 +4°C° 0 mm 4 mps 745 mmHg 73%
09:00 +5°C° 0 mm 4 mps 745 mmHg 64%
10:00 +6°C° 0 mm 4 mps 745 mmHg 56%
11:00 +7°C° 0 mm 4 mps 745 mmHg 47%
12:00 +7°C° 0 mm 5 mps 745 mmHg 48%
13:00 +7°C° 0 mm 5 mps 745 mmHg 50%
14:00 +7°C° 0 mm 5 mps 745 mmHg 51%
15:00 +7°C° 0.1 mm 5 mps 745 mmHg 52%
16:00 +7°C° 0.1 mm 5 mps 745 mmHg 53%
17:00 +6°C° 0.1 mm 4 mps 745 mmHg 55%
18:00 +5°C° 0.1 mm 3 mps 745 mmHg 63%
19:00 +4°C° 0.1 mm 3 mps 745 mmHg 72%
20:00 +3°C° 0.1 mm 2 mps 745 mmHg 80%
21:00 +3°C° 0 mm 2 mps 745 mmHg 81%
22:00 +2°C° 0 mm 2 mps 745 mmHg 83%
23:00 +2°C° 0 mm 2 mps 745 mmHg 84%

24 April, Saturday

Time Temperature Precipitation Wind Pressure Humidity
00:00 +2°C° 0 mm 2 mps 745 mmHg 86%
01:00 +2°C° 0 mm 2 mps 744 mmHg 87%
02:00 +1°C° 0 mm 2 mps 744 mmHg 89%
03:00 0°C° 1 mm 3 mps 744 mmHg 92%
04:00 -1°C° 1 mm 4 mps 744 mmHg 95%
05:00 -1°C° 1 mm 5 mps 744 mmHg 97%
06:00 -1°C° 0.6 mm 5 mps 744 mmHg 93%
07:00 -1°C° 0.6 mm 5 mps 745 mmHg 88%
08:00 0°C° 0.6 mm 5 mps 746 mmHg 84%
09:00 +1°C° 0.1 mm 5 mps 746 mmHg 80%
10:00 +1°C° 0.1 mm 5 mps 747 mmHg 76%
11:00 +2°C° 0.1 mm 5 mps 747 mmHg 72%
12:00 +3°C° 0.2 mm 5 mps 747 mmHg 67%
13:00 +4°C° 0.2 mm 6 mps 747 mmHg 61%
14:00 +5°C° 0.2 mm 6 mps 747 mmHg 56%
15:00 +6°C° 0.2 mm 5 mps 747 mmHg 57%
16:00 +6°C° 0.2 mm 5 mps 747 mmHg 59%
17:00 +5°C° 0.2 mm 5 mps 747 mmHg 60%
18:00 +4°C° 0.1 mm 4 mps 747 mmHg 67%
19:00 +3°C° 0.1 mm 3 mps 747 mmHg 73%
20:00 +2°C° 0.1 mm 2 mps 747 mmHg 80%
21:00 +2°C° 0 mm 2 mps 747 mmHg 82%
22:00 +1°C° 0 mm 2 mps 747 mmHg 83%
23:00 +1°C° 0 mm 2 mps 747 mmHg 85%

25 April, Sunday

Time Temperature Precipitation Wind Pressure Humidity
00:00 -1°C° 0 mm 2 mps 747 mmHg 86%
01:00 -1°C° 0 mm 2 mps 747 mmHg 87%
02:00 -1°C° 0 mm 2 mps 747 mmHg 88%
03:00 -1°C° 0 mm 2 mps 746 mmHg 89%
04:00 -1°C° 0 mm 2 mps 746 mmHg 89%
05:00 -1°C° 0 mm 2 mps 746 mmHg 90%
06:00 0°C° 0 mm 3 mps 746 mmHg 83%
07:00 0°C° 0 mm 4 mps 747 mmHg 76%
08:00 +1°C° 0 mm 4 mps 747 mmHg 68%
09:00 +1°C° 0 mm 5 mps 747 mmHg 66%
10:00 +1°C° 0 mm 5 mps 747 mmHg 64%
11:00 +1°C° 0 mm 5 mps 748 mmHg 62%
12:00 +2°C° 0 mm 5 mps 748 mmHg 59%
13:00 +3°C° 0 mm 5 mps 747 mmHg 55%
14:00 +5°C° 0 mm 4 mps 747 mmHg 51%
15:00 +5°C° 0.1 mm 4 mps 747 mmHg 52%
16:00 +5°C° 0.1 mm 4 mps 747 mmHg 54%
17:00 +5°C° 0.1 mm 4 mps 747 mmHg 55%
18:00 +4°C° 0 mm 4 mps 747 mmHg 62%
19:00 +2°C° 0 mm 3 mps 747 mmHg 69%
20:00 +2°C° 0 mm 2 mps 747 mmHg 76%
21:00 +1°C° 0 mm 3 mps 747 mmHg 78%
22:00 +1°C° 0 mm 3 mps 747 mmHg 80%
23:00 +1°C° 0 mm 3 mps 747 mmHg 82%

26 April, Monday

Time Temperature Precipitation Wind Pressure Humidity
00:00 0°C° 0 mm 3 mps 746 mmHg 85%
01:00 0°C° 0 mm 3 mps 746 mmHg 87%
02:00 0°C° 0 mm 3 mps 746 mmHg 89%
03:00 -1°C° 0 mm 3 mps 746 mmHg 91%
04:00 -2°C° 0 mm 3 mps 746 mmHg 92%
05:00 -2°C° 0 mm 2 mps 746 mmHg 94%
06:00 -1°C° 0 mm 3 mps 747 mmHg 84%
07:00 0°C° 0 mm 3 mps 747 mmHg 73%
08:00 0°C° 0 mm 4 mps 747 mmHg 63%
09:00 +3°C° 0 mm 4 mps 747 mmHg 56%
10:00 +4°C° 0 mm 4 mps 747 mmHg 49%
11:00 +5°C° 0 mm 3 mps 747 mmHg 42%
12:00 +7°C° 0 mm 3 mps 747 mmHg 41%
13:00 +7°C° 0 mm 3 mps 746 mmHg 40%
14:00 +8°C° 0 mm 3 mps 746 mmHg 39%
15:00 +8°C° 0 mm 2 mps 745 mmHg 40%
16:00 +8°C° 0 mm 2 mps 745 mmHg 40%
17:00 +9°C° 0 mm 1 mps 745 mmHg 41%
18:00 +8°C° 0 mm 1 mps 744 mmHg 48%
19:00 +5°C° 0 mm 2 mps 744 mmHg 56%
20:00 +4°C° 0 mm 2 mps 744 mmHg 64%
21:00 +3°C° 0.1 mm 2 mps 744 mmHg 69%
22:00 +3°C° 0.1 mm 2 mps 744 mmHg 74%
23:00 +4°C° 0.1 mm 1 mps 744 mmHg 79%
Show more